• In India
  • List of Countries
  • For 7 days
  • Water Temperature
  • Satellite Maps
  • Weather Map
  • Weather Widgets
  • user-avatar
    Login

    Hourly Weather Yeghegnadzor

    Today, 25 November, Saturday

    Time Temperature Precipitation Wind Pressure Humidity
    00:00 -6°C° 0 mm 2 mps 651 mmHg 67%
    01:00 -6°C° 0 mm 2 mps 651 mmHg 69%
    02:00 -6°C° 0 mm 2 mps 652 mmHg 71%
    03:00 -6°C° 0 mm 2 mps 651 mmHg 71%
    04:00 -6°C° 0.1 mm 2 mps 652 mmHg 73%
    05:00 -5°C° 0.1 mm 2 mps 652 mmHg 74%
    06:00 -5°C° 0.1 mm 2 mps 652 mmHg 76%
    07:00 -5°C° 0.1 mm 2 mps 653 mmHg 74%
    08:00 -4°C° 0.1 mm 2 mps 654 mmHg 73%
    09:00 -4°C° 0.1 mm 2 mps 654 mmHg 72%
    10:00 -3°C° 0 mm 2 mps 655 mmHg 69%
    11:00 -2°C° 0 mm 2 mps 655 mmHg 65%
    12:00 -2°C° 0 mm 2 mps 655 mmHg 61%
    13:00 -1°C° 0 mm 2 mps 655 mmHg 60%
    14:00 -1°C° 0 mm 2 mps 655 mmHg 59%
    15:00 -1°C° 0 mm 2 mps 655 mmHg 58%
    16:00 -2°C° 0 mm 2 mps 656 mmHg 63%
    17:00 -3°C° 0 mm 2 mps 656 mmHg 67%
    18:00 -5°C° 0 mm 2 mps 656 mmHg 72%
    19:00 -5°C° 0 mm 2 mps 656 mmHg 71%
    20:00 -5°C° 0 mm 2 mps 656 mmHg 69%
    21:00 -5°C° 0 mm 2 mps 657 mmHg 68%
    22:00 -5°C° 0 mm 2 mps 657 mmHg 66%
    23:00 -5°C° 0 mm 2 mps 657 mmHg 64%

    Tomorrow, 26 November, Sunday

    Time Temperature Precipitation Wind Pressure Humidity
    00:00 -5°C° 0 mm 2 mps 657 mmHg 62%
    01:00 -5°C° 0 mm 2 mps 657 mmHg 62%
    02:00 -5°C° 0 mm 2 mps 657 mmHg 62%
    03:00 -5°C° 0 mm 2 mps 656 mmHg 62%
    04:00 -5°C° 0 mm 2 mps 656 mmHg 63%
    05:00 -5°C° 0 mm 2 mps 656 mmHg 64%
    06:00 -5°C° 0 mm 2 mps 656 mmHg 65%
    07:00 -4°C° 0 mm 2 mps 656 mmHg 62%
    08:00 -2°C° 0 mm 2 mps 656 mmHg 59%
    09:00 -1°C° 0 mm 2 mps 657 mmHg 57%
    10:00 +1°C° 0 mm 2 mps 656 mmHg 54%
    11:00 +2°C° 0 mm 2 mps 656 mmHg 52%
    12:00 +3°C° 0 mm 2 mps 655 mmHg 50%
    13:00 +3°C° 0 mm 2 mps 655 mmHg 50%
    14:00 +3°C° 0 mm 2 mps 654 mmHg 50%
    15:00 +3°C° 0 mm 2 mps 654 mmHg 50%
    16:00 +1°C° 0 mm 2 mps 654 mmHg 53%
    17:00 -1°C° 0 mm 2 mps 654 mmHg 56%
    18:00 -2°C° 0 mm 2 mps 654 mmHg 59%
    19:00 -2°C° 0 mm 2 mps 654 mmHg 58%
    20:00 -2°C° 0 mm 2 mps 654 mmHg 57%
    21:00 -2°C° 0 mm 2 mps 654 mmHg 57%
    22:00 -2°C° 0 mm 2 mps 654 mmHg 58%
    23:00 -3°C° 0 mm 2 mps 654 mmHg 60%

    Day after tomorrow, 27 November, Monday

    Time Temperature Precipitation Wind Pressure Humidity
    00:00 -3°C° 0 mm 2 mps 654 mmHg 61%
    01:00 -3°C° 0 mm 2 mps 653 mmHg 62%
    02:00 -3°C° 0 mm 2 mps 653 mmHg 63%
    03:00 -3°C° 0 mm 2 mps 653 mmHg 64%
    04:00 -3°C° 0 mm 2 mps 653 mmHg 65%
    05:00 -3°C° 0 mm 2 mps 653 mmHg 65%
    06:00 -3°C° 0 mm 2 mps 653 mmHg 65%
    07:00 -2°C° 0 mm 2 mps 653 mmHg 62%
    08:00 -1°C° 0 mm 2 mps 654 mmHg 59%
    09:00 +2°C° 0 mm 2 mps 654 mmHg 56%
    10:00 +3°C° 0 mm 2 mps 654 mmHg 55%
    11:00 +4°C° 0 mm 2 mps 653 mmHg 54%
    12:00 +4°C° 0 mm 2 mps 653 mmHg 53%
    13:00 +4°C° 0 mm 2 mps 653 mmHg 53%
    14:00 +4°C° 0 mm 2 mps 653 mmHg 53%
    15:00 +4°C° 0 mm 2 mps 652 mmHg 54%
    16:00 +3°C° 0 mm 2 mps 652 mmHg 58%
    17:00 +2°C° 0 mm 1 mps 652 mmHg 61%
    18:00 +1°C° 0 mm 1 mps 653 mmHg 65%
    19:00 +1°C° 0 mm 1 mps 653 mmHg 64%
    20:00 +1°C° 0 mm 1 mps 653 mmHg 63%
    21:00 +1°C° 0 mm 1 mps 653 mmHg 62%
    22:00 0°C° 0 mm 1 mps 653 mmHg 62%
    23:00 0°C° 0 mm 1 mps 653 mmHg 63%

    28 November, Tuesday

    Time Temperature Precipitation Wind Pressure Humidity
    00:00 0°C° 0 mm 1 mps 653 mmHg 63%
    01:00 0°C° 0 mm 1 mps 653 mmHg 64%
    02:00 0°C° 0 mm 1 mps 653 mmHg 65%
    03:00 0°C° 0 mm 1 mps 653 mmHg 66%
    04:00 0°C° 0 mm 1 mps 653 mmHg 66%
    05:00 0°C° 0 mm 1 mps 653 mmHg 67%
    06:00 -1°C° 0 mm 1 mps 653 mmHg 67%
    07:00 +1°C° 0 mm 1 mps 654 mmHg 64%
    08:00 +2°C° 0 mm 1 mps 655 mmHg 60%
    09:00 +4°C° 0 mm 1 mps 655 mmHg 56%
    10:00 +5°C° 0 mm 1 mps 655 mmHg 54%
    11:00 +4°C° 0 mm 2 mps 655 mmHg 52%
    12:00 +5°C° 0 mm 2 mps 655 mmHg 50%
    13:00 +5°C° 0 mm 2 mps 654 mmHg 51%
    14:00 +6°C° 0 mm 1 mps 654 mmHg 51%
    15:00 +6°C° 0 mm 1 mps 654 mmHg 51%
    16:00 +5°C° 0 mm 1 mps 654 mmHg 55%
    17:00 +4°C° 0 mm 1 mps 654 mmHg 58%
    18:00 +3°C° 0 mm 1 mps 654 mmHg 62%
    19:00 +3°C° 0 mm 1 mps 654 mmHg 59%
    20:00 +3°C° 0 mm 1 mps 654 mmHg 57%
    21:00 +3°C° 0 mm 1 mps 655 mmHg 55%
    22:00 +3°C° 0 mm 1 mps 655 mmHg 54%
    23:00 +3°C° 0 mm 1 mps 654 mmHg 53%

    29 November, Wednesday

    Time Temperature Precipitation Wind Pressure Humidity
    00:00 +2°C° 0 mm 1 mps 654 mmHg 52%
    01:00 +2°C° 0 mm 1 mps 654 mmHg 52%
    02:00 +2°C° 0 mm 1 mps 654 mmHg 53%
    03:00 +2°C° 0 mm 1 mps 654 mmHg 53%
    04:00 +2°C° 0 mm 1 mps 654 mmHg 54%
    05:00 +1°C° 0 mm 1 mps 654 mmHg 54%
    06:00 +1°C° 0 mm 1 mps 654 mmHg 55%
    07:00 +3°C° 0 mm 1 mps 655 mmHg 53%
    08:00 +4°C° 0 mm 1 mps 655 mmHg 50%
    09:00 +4°C° 0 mm 2 mps 656 mmHg 48%
    10:00 +5°C° 0 mm 2 mps 656 mmHg 47%
    11:00 +6°C° 0 mm 2 mps 655 mmHg 45%
    12:00 +7°C° 0 mm 2 mps 655 mmHg 44%
    13:00 +7°C° 0 mm 2 mps 655 mmHg 45%
    14:00 +7°C° 0 mm 2 mps 654 mmHg 46%
    15:00 +7°C° 0 mm 2 mps 654 mmHg 47%
    16:00 +6°C° 0 mm 2 mps 654 mmHg 50%
    17:00 +5°C° 0 mm 2 mps 654 mmHg 54%
    18:00 +4°C° 0 mm 1 mps 653 mmHg 57%
    19:00 +3°C° 0 mm 2 mps 653 mmHg 58%
    20:00 +3°C° 0 mm 2 mps 653 mmHg 59%
    21:00 +3°C° 0 mm 2 mps 653 mmHg 59%
    22:00 +3°C° 0 mm 2 mps 653 mmHg 61%
    23:00 +3°C° 0 mm 2 mps 653 mmHg 62%

    30 November, Thursday

    Time Temperature Precipitation Wind Pressure Humidity
    00:00 +3°C° 0 mm 2 mps 653 mmHg 64%
    01:00 +3°C° 0.1 mm 2 mps 653 mmHg 65%
    02:00 +3°C° 0.1 mm 2 mps 653 mmHg 67%
    03:00 +3°C° 0.1 mm 2 mps 653 mmHg 69%
    04:00 +3°C° 0.1 mm 2 mps 653 mmHg 71%
    05:00 +3°C° 0.1 mm 2 mps 653 mmHg 73%
    06:00 +3°C° 0.1 mm 2 mps 653 mmHg 75%
    07:00 +4°C° 0 mm 2 mps 653 mmHg 73%
    08:00 +4°C° 0 mm 2 mps 653 mmHg 71%
    09:00 +6°C° 0 mm 1 mps 654 mmHg 69%
    10:00 +6°C° 0.1 mm 2 mps 654 mmHg 68%
    11:00 +6°C° 0.1 mm 2 mps 654 mmHg 66%
    12:00 +7°C° 0.1 mm 2 mps 653 mmHg 65%
    13:00 +6°C° 0.2 mm 2 mps 653 mmHg 67%
    14:00 +6°C° 0.2 mm 2 mps 653 mmHg 69%
    15:00 +6°C° 0.2 mm 2 mps 653 mmHg 71%
    16:00 +6°C° 0.2 mm 1 mps 654 mmHg 75%
    17:00 +5°C° 0.2 mm 1 mps 654 mmHg 79%
    18:00 +4°C° 0.2 mm 1 mps 654 mmHg 83%
    19:00 +4°C° 0.2 mm 1 mps 654 mmHg 83%
    20:00 +4°C° 0.2 mm 1 mps 655 mmHg 84%
    21:00 +4°C° 0.2 mm 1 mps 655 mmHg 85%
    22:00 +4°C° 0.2 mm 1 mps 655 mmHg 86%
    23:00 +3°C° 0.2 mm 1 mps 655 mmHg 87%
    Show more